Flag for Micronesia Weather past 2 weeks in Colonia, Yap, Micronesia

Now
78 °F

Passing clouds.


Feels Like: 79 °F
Forecast: 76 / 88 °F
Wind: No wind

Location: Yap Island

Current Time: May 29, 2015 at 7:17:19 AM

Latest Report: May 29, 2015 at 5:59 AM


Visibility: 12 mi

Pressure: 29.84 "Hg

Humidity: 88%

Dew point: 74 °F

Location of ColoniaLocation

Historic Weather in Colonia — Graph

°F

Colonia temperature yesterday

Maximum temperature yesterday: 89 °F (at 5:50 PM)
Minimum temperature yesterday: 78 °F (at 6:53 AM)
Average temperature yesterday: 81 °F

Past Weeks' High & Low Weather Summary

 TemperatureHumidityPressure
High89 °F (May 28, 5:50 PM)97% (May 24, 6:52 AM)29.93 "Hg (May 24, 6:52 AM)
Low74 °F (May 24, 2:50 AM)60% (May 14, 11:52 AM)29.70 "Hg (May 16, 4:51 PM)
Average82 °F83%29.84 "Hg
* Reported May 14 5:58 AM — May 29 5:59 AM, Colonia, Weather by CustomWeather, © 2015

Note: Actual official high and low records may vary slightly from our data, if they occured in-between our weather recording intervals... More about our weather records

Advertising

Colonia weather history for previous 24 hours

 ConditionsComfort  
Time TempWeatherWind HumidityBarometerVisibility
5:59 AM
Fri, May 29
78 °FPassing clouds.No wind88%29.84 "Hg12 mi
4:50 AM79 °FPassing clouds.No wind88%29.83 "Hg12 mi
3:50 AM78 °FPassing clouds.No wind88%29.83 "Hg12 mi
2:56 AM79 °FPassing clouds.No wind88%29.83 "Hg12 mi
1:55 AM79 °FPassing clouds.No wind86%29.85 "Hg12 mi
12:51 AM79 °FPassing clouds.No wind86%29.86 "Hg12 mi
11:51 PM
Thu, May 28
79 °FPassing clouds.No wind86%29.87 "Hg12 mi
10:50 PM79 °FPassing clouds.No wind84%29.87 "Hg12 mi
9:51 PM80 °FPassing clouds.No wind82%29.86 "Hg12 mi
8:50 PM80 °FPassing clouds.No wind79%29.85 "Hg12 mi
7:51 PM82 °FScattered clouds.5 mph78%29.83 "Hg12 mi
6:55 PM84 °FScattered clouds.5 mph73%29.80 "Hg12 mi
5:50 PM89 °FScattered clouds.5 mph65%29.78 "Hg12 mi
4:52 PM85 °FBroken clouds.6 mph75%29.78 "Hg12 mi
3:50 PM86 °FBroken clouds.3 mph75%29.77 "Hg12 mi
2:53 PM83 °FBroken clouds.3 mph81%29.78 "Hg12 mi
1:54 PM79 °FSprinkles. Mostly cloudy.5 mph88%29.80 "Hg6 mi
12:50 PM80 °FLots of rain. Mostly cloudy.6 mph88%29.81 "Hg5 mi
11:51 AM82 °FBroken clouds.5 mph86%29.82 "Hg12 mi
10:50 AM84 °FScattered clouds.No wind80%29.83 "Hg12 mi
9:52 AM84 °FScattered clouds.No wind78%29.83 "Hg12 mi
7:50 AM83 °FScattered clouds.No wind81%29.83 "Hg12 mi
Weather by CustomWeather, © 2015

See weather overviewHow to use our weather pages